カタログに戻る

QIANFAN-116

運用中通信PO
NORAD 68643·PAYLOAD·🇨🇳 China

打ち上げ Apr 7, 2026 から Wenchang Space Launch Site

Loading…

次のパス (今後24時間)

TLE

最新Source: Space-Track

元期: Sep 14, 2026, 13:33 UTC

1 68643U 26075H   26257.56501506  .00000066  00000-0  84255-4 0  9997
2 68643  88.9866 311.8571 0002445  90.4064 269.7367 13.51024809 21879

AllMySatでQIANFAN-116をリアルタイム追跡

Download on the App Store